| time (UTC) | temp C | wind direction | speed KPH | gust KPH | rain 1hr cm | rain 24hr cm | rain mn cm | humidity % | barometer mb |
| 20260831200312 | 15 | 0 | 0.0 | 0.0 | 0.00 | 0.03 | 0.03 | 79 | 1016.7 |
| 20260831195312 | 15 | 0 | 0.0 | 0.0 | 0.00 | 0.03 | 0.03 | 78 | 1016.9 |
| 20260831194312 | 15 | 360 | 3.2 | 6.4 | 0.00 | 0.03 | 0.03 | 77 | 1016.7 |
| 20260831193312 | 15 | 0 | 0.0 | 0.0 | 0.00 | 0.03 | 0.03 | 77 | 1016.3 |
| 20260831192312 | 15 | 45 | 3.2 | 6.4 | 0.00 | 0.03 | 0.03 | 76 | 1016.3 |
| 20260831191311 | 15 | 0 | 0.0 | 8.0 | 0.00 | 0.03 | 0.03 | 77 | 1016.2 |
| 20260831190311 | 15 | 22 | 6.4 | 8.0 | 0.00 | 0.03 | 0.03 | 77 | 1016.2 |
| 20260831185311 | 16 | 360 | 6.4 | 8.0 | 0.00 | 0.03 | 0.03 | 76 | 1016.4 |
| 20260831184311 | 16 | 360 | 6.4 | 8.0 | 0.00 | 0.03 | 0.03 | 74 | 1015.8 |
| 20260831183312 | 16 | 45 | 3.2 | 8.0 | 0.00 | 0.03 | 0.03 | 73 | 1015.8 |
| 20260831182311 | 17 | 360 | 4.8 | 6.4 | 0.00 | 0.03 | 0.03 | 72 | 1015.8 |
| 20260831181310 | 17 | 360 | 3.2 | 6.4 | 0.00 | 0.03 | 0.03 | 71 | 1015.9 |
| 20260831180310 | 18 | 0 | 0.0 | 0.0 | 0.00 | 0.03 | 0.03 | 68 | 1015.7 |
| 20260831175310 | 18 | 0 | 0.0 | 4.8 | 0.00 | 0.03 | 0.03 | 67 | 1015.7 |
| 20260831173310 | 19 | 360 | 1.6 | 3.2 | 0.00 | 0.03 | 0.03 | 62 | 1015.7 |
| 20260831170310 | 20 | 292 | 0.0 | 3.2 | 0.00 | 0.03 | 0.03 | 58 | 1015.4 |
| 20260831165309 | 20 | 270 | 1.6 | 8.0 | 0.00 | 0.03 | 0.03 | 57 | 1015.3 |
| 20260831164309 | 20 | 180 | 0.0 | 6.4 | 0.00 | 0.03 | 0.03 | 57 | 1015.5 |
| 20260831163309 | 20 | 247 | 0.0 | 4.8 | 0.00 | 0.03 | 0.03 | 58 | 1015.6 |
| 20260831162309 | 20 | 247 | 3.2 | 11.3 | 0.00 | 0.03 | 0.03 | 56 | 1015.6 |
| 20260831161314 | 20 | 202 | 0.0 | 11.3 | 0.00 | 0.03 | 0.03 | 56 | 1015.7 |
| 20260831160314 | 20 | 292 | 4.8 | 9.7 | 0.00 | 0.03 | 0.03 | 57 | 1015.6 |
| 20260831155314 | 20 | 0 | 0.0 | 11.3 | 0.00 | 0.03 | 0.03 | 57 | 1015.5 |
| 20260831153313 | 21 | 292 | 3.2 | 19.3 | 0.00 | 0.03 | 0.03 | 57 | 1016.0 |
| 20260831152313 | 21 | 270 | 4.8 | 9.7 | 0.00 | 0.03 | 0.03 | 55 | 1015.9 |
| 20260831151313 | 21 | 292 | 4.8 | 17.7 | 0.00 | 0.03 | 0.03 | 56 | 1016.2 |
| 20260831150313 | 21 | 292 | 3.2 | 12.9 | 0.00 | 0.03 | 0.03 | 55 | 1016.2 |
| 20260831145313 | 21 | 292 | 3.2 | 25.7 | 0.00 | 0.03 | 0.03 | 55 | 1016.0 |
| 20260831144313 | 21 | 270 | 8.0 | 27.4 | 0.00 | 0.03 | 0.03 | 55 | 1015.9 |
| 20260831143313 | 21 | 270 | 1.6 | 11.3 | 0.00 | 0.03 | 0.03 | 56 | 1016.3 |
| 20260831142313 | 21 | 180 | 11.3 | 25.7 | 0.00 | 0.03 | 0.03 | 54 | 1016.3 |
| 20260831141312 | 21 | 180 | 4.8 | 19.3 | 0.00 | 0.03 | 0.03 | 56 | 1016.1 |
| 20260831140312 | 21 | 180 | 6.4 | 22.5 | 0.00 | 0.03 | 0.03 | 57 | 1016.0 |
| 20260831135312 | 21 | 202 | 3.2 | 19.3 | 0.00 | 0.03 | 0.03 | 55 | 1015.9 |
| 20260831134312 | 21 | 180 | 6.4 | 24.1 | 0.00 | 0.03 | 0.03 | 57 | 1016.2 |
| 20260831133312 | 21 | 180 | 6.4 | 12.9 | 0.00 | 0.03 | 0.03 | 56 | 1016.4 |
| 20260831132312 | 21 | 315 | 3.2 | 17.7 | 0.00 | 0.03 | 0.03 | 55 | 1016.3 |
| 20260831130311 | 21 | 202 | 6.4 | 22.5 | 0.00 | 0.03 | 0.03 | 58 | 1016.4 |
| 20260831125311 | 21 | 157 | 8.0 | 24.1 | 0.00 | 0.03 | 0.03 | 58 | 1016.4 |
| 20260831124311 | 21 | 180 | 8.0 | 17.7 | 0.00 | 0.03 | 0.03 | 59 | 1016.4 |
| 20260831122311 | 20 | 202 | 9.7 | 29.0 | 0.00 | 0.03 | 0.03 | 56 | 1016.1 |
| 20260831121311 | 20 | 202 | 11.3 | 22.5 | 0.00 | 0.03 | 0.03 | 64 | 1016.2 |
| 20260831120311 | 20 | 202 | 4.8 | 14.5 | 0.00 | 0.03 | 0.03 | 64 | 1016.3 |
| 20260831115312 | 19 | 180 | 1.6 | 24.1 | 0.00 | 0.03 | 0.03 | 63 | 1016.1 |
| 20260831114310 | 20 | 225 | 4.8 | 16.1 | 0.00 | 0.03 | 0.03 | 60 | 1016.2 |
| 20260831113310 | 20 | 292 | 8.0 | 22.5 | 0.00 | 0.03 | 0.03 | 66 | 1016.3 |
| 20260831112310 | 19 | 180 | 4.8 | 14.5 | 0.00 | 0.03 | 0.03 | 69 | 1016.1 |
| 20260831111310 | 20 | 315 | 9.7 | 17.7 | 0.00 | 0.03 | 0.03 | 66 | 1016.2 |
| 20260831110310 | 20 | 292 | 8.0 | 20.9 | 0.00 | 0.03 | 0.03 | 71 | 1016.3 |
| 20260831105310 | 20 | 202 | 8.0 | 17.7 | 0.00 | 0.03 | 0.03 | 70 | 1016.3 |
| 20260831104309 | 19 | 202 | 4.8 | 17.7 | 0.00 | 0.03 | 0.03 | 77 | 1016.5 |
| 20260831103309 | 18 | 270 | 8.0 | 14.5 | 0.00 | 0.03 | 0.03 | 75 | 1016.2 |
| 20260831102309 | 18 | 270 | 6.4 | 14.5 | 0.00 | 0.03 | 0.03 | 76 | 1016.2 |
| 20260831101309 | 18 | 292 | 3.2 | 19.3 | 0.00 | 0.03 | 0.03 | 76 | 1016.5 |
| 20260831100309 | 17 | 337 | 11.3 | 17.7 | 0.00 | 0.03 | 0.03 | 79 | 1016.2 |
| 20260831095314 | 17 | 247 | 1.6 | 8.0 | 0.00 | 0.03 | 0.03 | 83 | 1016.2 |
| 20260831094314 | 16 | 315 | 0.0 | 8.0 | 0.00 | 0.03 | 0.03 | 85 | 1015.8 |
| 20260831093314 | 16 | 180 | 4.8 | 19.3 | 0.00 | 0.03 | 0.03 | 86 | 1015.7 |
| 20260831091313 | 16 | 202 | 3.2 | 9.7 | 0.00 | 0.03 | 0.03 | 87 | 1015.4 |
| 20260831090313 | 16 | 202 | 0.0 | 14.5 | 0.00 | 0.03 | 0.03 | 88 | 1015.4 |
| 20260831085313 | 16 | 0 | 0.0 | 9.7 | 0.00 | 0.03 | 0.03 | 87 | 1015.6 |
| 20260831084313 | 16 | 292 | 4.8 | 14.5 | 0.00 | 0.03 | 0.03 | 88 | 1015.6 |
| 20260831083313 | 16 | 202 | 4.8 | 14.5 | 0.00 | 0.03 | 0.03 | 88 | 1015.5 |
| 20260831082313 | 16 | 180 | 8.0 | 12.9 | 0.00 | 0.03 | 0.03 | 88 | 1015.5 |
| 20260831081312 | 15 | 202 | 6.4 | 12.9 | 0.00 | 0.03 | 0.03 | 87 | 1015.2 |
| 20260831074312 | 16 | 0 | 0.0 | 14.5 | 0.00 | 0.03 | 0.03 | 87 | 1015.2 |
| 20260831072312 | 16 | 270 | 6.4 | 22.5 | 0.00 | 0.03 | 0.03 | 90 | 1015.1 |
| 20260831070311 | 16 | 0 | 0.0 | 6.4 | 0.00 | 0.03 | 0.03 | 90 | 1014.7 |
| 20260831064311 | 16 | 202 | 1.6 | 4.8 | 0.00 | 0.03 | 0.03 | 91 | 1014.8 |
| 20260831063311 | 16 | 0 | 0.0 | 0.0 | 0.03 | 0.03 | 0.03 | 90 | 1015.3 |
| 20260831062311 | 15 | 0 | 0.0 | 0.0 | 0.03 | 0.03 | 0.03 | 90 | 1015.3 |
| 20260831060311 | 16 | 0 | 0.0 | 0.0 | 0.03 | 0.03 | 0.03 | 89 | 1015.6 |
| 20260831055311 | 16 | 0 | 0.0 | 0.0 | 0.03 | 0.03 | 0.03 | 88 | 1015.6 |
| 20260831053311 | 15 | 0 | 0.0 | 9.7 | 0.00 | 0.00 | 0.00 | 87 | 1015.2 |
| 20260831052310 | 15 | 225 | 1.6 | 11.3 | 0.00 | 0.00 | 0.00 | 86 | 1015.3 |
| 20260831051310 | 15 | 0 | 0.0 | 0.0 | 0.00 | 0.00 | 0.00 | 86 | 1014.1 |
| 20260831050310 | 15 | 45 | 6.4 | 8.0 | 0.00 | 0.00 | 0.00 | 85 | 1013.9 |
| 20260831045310 | 15 | 22 | 4.8 | 8.0 | 0.00 | 0.00 | 0.00 | 85 | 1013.9 |
| 20260831044310 | 15 | 22 | 4.8 | 8.0 | 0.00 | 0.00 | 0.00 | 85 | 1014.5 |
| 20260831042310 | 16 | 45 | 4.8 | 8.0 | 0.00 | 0.00 | 0.00 | 84 | 1014.4 |
| 20260831040309 | 16 | 45 | 4.8 | 8.0 | 0.00 | 0.00 | 0.00 | 85 | 1014.8 |
| 20260831034314 | 16 | 45 | 4.8 | 6.4 | 0.00 | 0.00 | 0.00 | 83 | 1014.8 |
| 20260831033314 | 16 | 45 | 3.2 | 4.8 | 0.00 | 0.00 | 0.00 | 86 | 1015.1 |
| 20260831032314 | 16 | 45 | 0.0 | 4.8 | 0.00 | 0.00 | 0.00 | 86 | 1015.1 |
| 20260831030313 | 16 | 22 | 3.2 | 4.8 | 0.00 | 0.00 | 0.00 | 84 | 1014.8 |
| 20260831025313 | 16 | 0 | 0.0 | 4.8 | 0.00 | 0.00 | 0.00 | 83 | 1014.8 |
| 20260831024313 | 16 | 22 | 3.2 | 4.8 | 0.00 | 0.00 | 0.00 | 82 | 1015.0 |
| 20260831023313 | 16 | 0 | 0.0 | 6.4 | 0.00 | 0.00 | 0.00 | 82 | 1015.0 |
| 20260831020313 | 16 | 45 | 8.0 | 11.3 | 0.00 | 0.00 | 0.00 | 83 | 1015.4 |
| 20260831015312 | 16 | 45 | 8.0 | 9.7 | 0.00 | 0.00 | 0.00 | 83 | 1015.4 |
| 20260831014312 | 15 | 45 | 6.4 | 8.0 | 0.00 | 0.00 | 0.00 | 83 | 1015.2 |
| 20260831013312 | 15 | 22 | 4.8 | 8.0 | 0.00 | 0.00 | 0.00 | 83 | 1015.2 |
| 20260831012313 | 15 | 45 | 4.8 | 11.3 | 0.00 | 0.00 | 0.00 | 82 | 1015.2 |
| 20260831011312 | 15 | 45 | 6.4 | 9.7 | 0.00 | 0.00 | 0.00 | 82 | 1015.3 |
| 20260831010312 | 15 | 45 | 6.4 | 11.3 | 0.00 | 0.00 | 0.00 | 82 | 1015.4 |
| 20260831005312 | 15 | 45 | 8.0 | 11.3 | 0.00 | 0.00 | 0.00 | 83 | 1015.4 |
| 20260831003312 | 15 | 45 | 8.0 | 11.3 | 0.00 | 0.00 | 0.00 | 82 | 1015.7 |
| 20260831002313 | 15 | 45 | 8.0 | 9.7 | 0.00 | 0.00 | 0.00 | 82 | 1015.7 |
| 20260831001311 | 15 | 45 | 6.4 | 11.3 | 0.00 | 0.00 | 0.00 | 81 | 1015.7 |
| 20260831000311 | 15 | 45 | 6.4 | 9.7 | 0.00 | 0.00 | 0.00 | 82 | 1015.8 |
| 20260830235311 | 15 | 45 | 8.0 | 9.7 | 0.00 | 0.00 | 0.00 | 82 | 1015.6 |
| 20260830234311 | 15 | 45 | 6.4 | 11.3 | 0.00 | 0.00 | 0.00 | 83 | 1015.7 |
| 20260830233310 | 15 | 45 | 6.4 | 9.7 | 0.00 | 0.00 | 0.00 | 83 | 1015.7 |
| 20260830231311 | 15 | 45 | 6.4 | 9.7 | 0.00 | 0.00 | 0.00 | 83 | 1015.5 |
| 20260830230310 | 15 | 45 | 6.4 | 8.0 | 0.00 | 0.00 | 0.00 | 83 | 1015.5 |
| 20260830225310 | 16 | 45 | 6.4 | 9.7 | 0.00 | 0.00 | 0.00 | 82 | 1015.7 |
| 20260830223310 | 16 | 45 | 6.4 | 8.0 | 0.00 | 0.00 | 0.00 | 82 | 1015.8 |
| 20260830222310 | 16 | 22 | 6.4 | 8.0 | 0.00 | 0.00 | 0.00 | 81 | 1015.8 |
| 20260830221309 | 16 | 45 | 4.8 | 11.3 | 0.00 | 0.00 | 0.00 | 80 | 1016.1 |
| 20260830220309 | 16 | 45 | 6.4 | 8.0 | 0.00 | 0.00 | 0.00 | 81 | 1016.0 |
| 20260830214309 | 15 | 45 | 6.4 | 8.0 | 0.00 | 0.00 | 0.00 | 82 | 1016.0 |
| 20260830213309 | 15 | 45 | 8.0 | 11.3 | 0.00 | 0.00 | 0.00 | 83 | 1015.8 |
| 20260830212314 | 15 | 45 | 6.4 | 9.7 | 0.00 | 0.00 | 0.00 | 82 | 1015.8 |
| 20260830211314 | 15 | 45 | 6.4 | 9.7 | 0.00 | 0.00 | 0.00 | 82 | 1015.8 |
| 20260830205313 | 16 | 22 | 6.4 | 9.7 | 0.00 | 0.00 | 0.00 | 81 | 1015.8 |
| 20260830204313 | 16 | 22 | 4.8 | 9.7 | 0.00 | 0.00 | 0.00 | 80 | 1015.8 |
| 20260830203313 | 16 | 45 | 4.8 | 11.3 | 0.00 | 0.00 | 0.00 | 80 | 1015.7 |
| 20260830202313 | 16 | 45 | 6.4 | 9.7 | 0.00 | 0.00 | 0.00 | 80 | 1015.7 |
| 20260830201313 | 16 | 22 | 6.4 | 12.9 | 0.00 | 0.00 | 0.00 | 80 | 1015.6 |